Location: Llanfihangel-Ystrad
(52.1833°N, 4.1667°W)
Time: 15:21:02
(UTC+00:00)

Meteor 1-31 Rocket - Pass Details

Date: 17 February 2020
Orbit: 522 x 546 km, 97.6° (Epoch: 27 March)

Event Time Altitude Azimuth Distance (km) Brightness Sun altitude
Rises 05:36:30 0° 9° (N) 2,667 6.5 -17.9°
Reaches altitude 10° 05:38:40 10° 4° (N) 1,774 5.5 -17.5°
Maximum altitude 05:42:20 47° 290° (WNW) 706 2.9 -17.0°
Enters shadow 05:43:41 32° 238° (WSW) 923 3.5 -16.8°
